This is the latest recevied weather packets stored in our database for station/object KB0BS-13. If no packets are shown the sender has not sent any weather packets the latest 10 day(s).
| Time | Temp. | Humidity | Pressure | Rain* | Wind** | Luminosity | Snow |
|---|---|---|---|---|---|---|---|
| 1777305595 | 15.56° C | 59% | 1017.8 hPa | 0 mm | - | 555 W/m² | - |
| 1777305291 | 15° C | 59% | 1018 hPa | 0 mm | - | 645 W/m² | - |
| 1777304990 | 14.44° C | 58% | 1018.3 hPa | 0 mm | - | 492 W/m² | - |
| 1777304686 | 14.44° C | 59% | 1018.5 hPa | 0 mm | - | 314 W/m² | - |
| 1777304384 | 14.44° C | 58% | 1018.6 hPa | 0 mm | - | 365 W/m² | - |
| 1777304081 | 14.44° C | 58% | 1019 hPa | 0 mm | - | 361 W/m² | - |
| 1777303778 | 14.44° C | 56% | 1019 hPa | 0 mm | - | 426 W/m² | - |
| 1777303475 | 13.89° C | 55% | 1019.1 hPa | 0 mm | - | 435 W/m² | - |
| 1777303172 | 13.89° C | 57% | 1019.5 hPa | 0 mm | - | 435 W/m² | - |
| 1777302871 | 13.89° C | 54% | 1019.3 hPa | 0 mm | - | 394 W/m² | - |
| 1777302567 | 13.89° C | 53% | 1019.6 hPa | 0 mm | - | 392 W/m² | - |
| 1777302266 | 13.89° C | 50% | 1019.9 hPa | 0 mm | - | 459 W/m² | - |
| 1777301963 | 13.89° C | 49% | 1020 hPa | 0 mm | - | 515 W/m² | - |
| 1777301661 | 13.89° C | 49% | 1020.2 hPa | 0 mm | - | 475 W/m² | - |
| 1777301357 | 13.89° C | 47% | 1020.2 hPa | 0 mm | - | 519 W/m² | - |
| 1777301053 | 13.89° C | 48% | 1020.2 hPa | 0 mm | - | 509 W/m² | - |
| 1777300751 | 13.89° C | 51% | 1020.1 hPa | 0 mm | - | 490 W/m² | - |
| 1777300449 | 13.33° C | 59% | 1020.4 hPa | 0 mm | - | 492 W/m² | - |
| 1777300146 | 12.78° C | 61% | 1020.1 hPa | 0 mm | - | 461 W/m² | - |
| 1777299842 | 12.22° C | 66% | 1020.4 hPa | 0 mm | - | 424 W/m² | - |
| 1777299540 | 12.22° C | 67% | 1020.4 hPa | 0 mm | - | 399 W/m² | - |
| 1777299238 | 11.67° C | 71% | 1020.5 hPa | 0 mm | - | 436 W/m² | - |
| 1777298935 | 11.67° C | 73% | 1020.7 hPa | 0 mm | - | 482 W/m² | - |
| 1777298632 | 11.11° C | 73% | 1020.8 hPa | 0 mm | - | 453 W/m² | - |
| 1777298328 | 10.56° C | 73% | 1021.3 hPa | 0 mm | - | 355 W/m² | - |
* Rain latest hour (hover to see other rain measurements)
** Current wind speed in m/s (hover to see current wind gust speed)